DECAYED

RESURS P1 DEB, 60218 (Decayed)

Orbit data source: Space-Track

RESURS P1 DEB, 60218 was space debris in SSO originally from a Commonwealth of Independent States-origin launch on Tue, 25 Jun 2013 UTC launched from the Tyuratam Missile And Space Complex (TTMTR). Debris objects in space refer to the collection of defunct objects orbiting the Earth. Examples of debris include non-operational satellites, rocket bodies, and fragments generated from explosions, collisions, or faulty payload assembly.

Not visible in the next 10 days
Identifier
60218, 2013-030G
Orbit
Decayed
Country
Flag of CISCIS
Related business
Manufacturer
TSSKBP?
Mission
Decayed spacecraft
Bus & Motor
Unknown
Mass
Unknown
Launch date (UTC)
2013-06-25 (12 years ago)
Launch vehicle
Unknown
Launch site
Tyuratam Missile And Space Complex (TTMTR)
Object type
Payload
Rocket body
Debris
Shape & HBR
Unknown
Radar Cross Section
Small (<0.1 m²)

Expand to show TLE details & history
Last TLE update: 1 year ago

TLE from 1 year ago
0 RESURS P1 DEB
1 60218U 13030G   24194.09553758  .13272564  22311-5  91244-2 0  9992
2 60218  96.9619 243.9518 0023883 313.0053  46.9232 16.15837279  2311
Epoch: 2024-07-12T02:17Z
TLE epoch observation values (Epoch: 2024-07-12T02:17:34.446Z)
Latitude
-0.00014°
Longitude
-80.91845°
Altitude
223.347 km
Speed
7.779 km/s
True Right ascension
16h 15m 48s
True Declination
0° 00' 01"
Sunlit
Object was in full shadow at epoch
Visualization orbit readout
Latitude
Unknown
Longitude
Unknown
Altitude
Unknown
Speed
Unknown
Apparent Right ascension
Unknown
Apparent Declination
Unknown
Sunlit
N/A
Visualization observer readout
Local Sidereal Time
00:07:03
Azimuth
Unknown
Elevation
Unknown
Doppler factor
Unknown
Orbital elements
Apogee altitude
243.475 km
Perigee altitude
211.922 km
Semi-major axis
6,605.835 km
Eccentricity
0.00239
Inclination
96.9619°
RAAN
243.9518°
Arg. of periapsis
313.0053°
True anomaly
47.12351°
Mean anomaly
46.9232°
Eccentric anomaly
47.02332°
Mean motion
4.04251 °/min
Orbital period
89.05 mins
BSTAR
0.0091244
Loading maneuver chart data...
Computing Atmospheric mass density...

Documentation

Showing up to 5 results
|